Weather Roundup
Issued by NWS Chicago, IL

Home | Current Version | Previous Version | Text Only | Print | Product List | Glossary On
Versions: 1 2 3 4 5 6 7 8 9 10 11 12 13 14 15 16 17 18 19 20 21 22 23 24 25 26 27 28 29 30 31 32 33 34 35 36 37 38 39 40 41 42 43 44 45 46 47 48 49 50
000
NZUS59 KLOT 020121
HRRLOT

CHICAGO AREA WEATHER ROUNDUP
NATIONAL WEATHER SERVICE CHICAGO/ROMEOVILLE IL
800 PM CDT TUE SEP 01 2015

NOTE: "FAIR" INDICATES FEW OR NO CLOUDS BELOW 12,000 FEET WITH NO
SIGNIFICANT WEATHER AND/OR OBSTRUCTIONS TO VISIBILITY.

* THESE STATIONS ARE NOT UNDER NWS QUALITY CONTROL. THEY ALSO MAY NOT
  REPORT WEATHER SUCH AS PRECIPITATION OR FOG.

ILZ005-006-012>014-019>023-020200-
NORTHEAST ILLINOIS

CITY           SKY/WX    TMP DP  RH WIND       PRES   REMARKS
OHARE          PTCLDY    83  72  69 S8        30.00R HX  88
MIDWAY         PTCLDY    86  71  60 S8        30.01R HX  91
AURORA         CLEAR     80  73  79 S6        30.02R HX  84
LANSING*       CLEAR     78  71  80 S8        30.04R
JOLIET*        CLEAR     83  74  76 S6        30.02R HX  89
WAUKEGAN       CLEAR     78  72  81 S7        29.99R HX  80
DUPAGE AIRPORT CLEAR     79  72  79 S6        30.01R HX  82
WHEELING       CLEAR     84  71  65 S7        30.01R HX  89
KANKAKEE*      CLEAR     77  73  86 S6        30.05R
MORRIS*        CLEAR     78  73  83 S6        30.01R HX  81
LEWIS AIRPORT* CLEAR     78  71  78 S8        30.02R HX  81
NORTHERLY IS     N/A     84  69  60 S9          N/A  HX  88
$$

WIZ051-052-058>065-066-070>072-020200-
SOUTHEAST WISCONSIN

CITY           SKY/WX    TMP DP  RH WIND       PRES   REMARKS
MILWAUKEE      PTCLDY    82  70  66 S7        29.98R HX  86
KENOSHA*       CLEAR     81  70  69 S6        29.99R HX  84
RACINE*        CLEAR     80  69  69 SW5       30.00R HX  83
BURLINGTON     CLEAR     74  70  88 CALM      29.99R
WEST BEND      CLEAR     75  70  83 CALM      29.98R
$$

INZ001>003-010>013-019-020-020200-
NORTHWEST INDIANA

CITY           SKY/WX    TMP DP  RH WIND       PRES   REMARKS
GARY*          PTCLDY    82  70  65 S7        30.03R HX  86
MICHIGAN CITY* NOT AVBL
RENSSELAER*    NOT AVBL
VALPARAISO     CLEAR     78  70  76 S6        30.05R HX  80
$$

LMZ740>746-020200-
SOUTHERN LAKE MICHIGAN

STATION/POSITION TIME  SKY/WX   TEMP WIND        PRES    VSBY
                                AIR  DIR/SP/G
                 (UTC)          (F)  (DEG/KT/KT) (MB)    (MI)
HARRISON CRIB    0100            82  200/ 13/ 14   N/A
BURNHAM HARBOR   0100            84  190/  9/ 11   N/A
CALUMET HARBOR   0000            84  200/  6/ 10   N/A
BURNS HARBOR     0000            83  180/  8/ 12 1016.9R
MICHIGAN CITY    0000            82  170/  8/  9   N/A
$$

ABBREVIATIONS USED IN REMARKS
   TC - TEMPERATURE IN CELSIUS
  WCI - WIND CHILL INDEX
   HX - HEAT INDEX
  VSB - VISIBILITY
$$


USA.gov is the U.S. government's official web portal to all federal, state and local government web resources and services.